Tracking 29892 objects as of 21-Nov-2024
HD Live streaming from Space Station
objects crossing your sky now

COSMOS 2226

Track COSMOS 2226 now!
10-day predictions
COSMOS 2226 is classified as:


NORAD ID: 22282
Int'l Code: 1992-092A
Perigee: 1,485.6 km
Apogee: 1,531.0 km
Inclination: 73.6 °
Period: 116.0 minutes
Semi major axis: 7879 km
RCS: 8.9068 m2 (large)
Launch date: December 22, 1992
Source: Commonwealth of Independent States (former USSR) (CIS)
Launch site: PLESETSK MISSILE AND SPACE COMPLEX (PKMTR)
Your satellite tracking list
Your tracking list is empty




NASA's NSSDC Master Catalog

Two Line Element Set (TLE):
1 22282U 92092A   24325.55502128 -.00000023  00000-0 -45095-4 0  9996
2 22282  73.6211 154.2308 0028803 129.6652 260.2780 12.41291339446265
Source of the keplerian elements: AFSPC